Location: Newark
(7.0858°N, 171.3717°E)
Time: 20:44:24
(UTC+00:00)

Vanguard 2 - Pass Details

Date: 05 December 2020
Orbit: 553 x 2937 km, 32.9° (Epoch: 17 January)

Event Time Altitude Azimuth Distance (km) Brightness Sun altitude
Rises 15:18:18 0° 223° (SW) 6,734 12.2 -45.7°
Reaches altitude 10° 15:23:01 10° 218° (SW) 5,765 11.8 -44.6°
Maximum altitude 15:40:05 52° 146° (SSE) 3,076 10.6 -40.7°
Drops below altitude 10° 15:52:50 10° 74° (ENE) 4,447 11.9 -37.8°
Sets 15:55:54 0° 69° (ENE) 5,160 12.3 -37.1°
